Time,TemperatureF,DewpointF,PressureIn,WindDirection,WindDirectionDegrees,WindSpeedMPH,WindSpeedGustMPH,Humidity,HourlyPrecipIn,Conditions,Clouds,dailyrainin,SoftwareType,DateUTC
2013-01-19 00:13:00,37.4,27.1,30.28,SSW,207,6.0,9.0,66,0.00,,,0.00,Wunderground v.1.15,2013-01-19 05:13:00,
2013-01-19 00:22:00,37.7,27.0,30.28,SSW,205,7.0,7.0,65,0.00,,,0.00,Wunderground v.1.15,2013-01-19 05:22:00,
2013-01-19 00:32:00,37.8,27.1,30.28,SW,232,7.0,7.0,65,0.00,,,0.00,Wunderground v.1.15,2013-01-19 05:32:00,
2013-01-19 00:43:00,37.7,26.6,30.28,SW,229,7.0,7.0,64,0.00,,,0.00,Wunderground v.1.15,2013-01-19 05:43:00,
2013-01-19 00:52:00,37.7,26.6,30.27,SSW,195,7.0,7.0,64,0.00,,,0.00,Wunderground v.1.15,2013-01-19 05:52:00,
2013-01-19 01:03:00,37.6,26.9,30.27,SW,225,6.0,7.0,65,0.00,,,0.00,Wunderground v.1.15,2013-01-19 06:03:00,
2013-01-19 01:12:00,37.6,26.5,30.27,South,175,6.0,6.0,64,0.00,,,0.00,Wunderground v.1.15,2013-01-19 06:12:00,
2013-01-19 01:22:00,37.7,26.6,30.26,West,260,7.0,12.0,64,0.00,,,0.00,Wunderground v.1.15,2013-01-19 06:22:00,
2013-01-19 01:32:00,37.9,26.4,30.26,SW,215,7.0,7.0,63,0.00,,,0.00,Wunderground v.1.15,2013-01-19 06:32:00,
2013-01-19 01:42:00,37.8,26.3,30.26,South,181,7.0,8.0,63,0.00,,,0.00,Wunderground v.1.15,2013-01-19 06:42:00,
2013-01-19 01:52:00,37.8,26.3,30.26,SW,235,7.0,11.0,63,0.00,,,0.00,Wunderground v.1.15,2013-01-19 06:52:00,
2013-01-19 02:02:00,37.8,26.3,30.26,SW,214,7.0,7.0,63,0.00,,,0.00,Wunderground v.1.15,2013-01-19 07:02:00,
2013-01-19 02:13:00,37.8,26.7,30.26,SW,217,7.0,9.0,64,0.00,,,0.00,Wunderground v.1.15,2013-01-19 07:13:00,
2013-01-19 02:23:00,37.7,26.6,30.26,SSW,201,7.0,7.0,64,0.00,,,0.00,Wunderground v.1.15,2013-01-19 07:23:00,
2013-01-19 02:33:00,37.7,26.6,30.26,SSW,196,6.0,6.0,64,0.00,,,0.00,Wunderground v.1.15,2013-01-19 07:33:00,
2013-01-19 02:43:00,37.6,26.9,30.26,SW,225,6.0,6.0,65,0.00,,,0.00,Wunderground v.1.15,2013-01-19 07:43:00,
2013-01-19 02:53:00,37.8,26.7,30.26,SSW,196,6.0,6.0,64,0.00,,,0.00,Wunderground v.1.15,2013-01-19 07:53:00,
2013-01-19 02:58:00,37.9,26.8,30.26,SSW,196,6.0,6.0,64,0.00,,,0.00,Wunderground v.1.15,2013-01-19 07:58:00,
2013-01-19 03:12:00,38.0,26.5,30.26,SW,215,7.0,13.0,63,0.00,,,0.00,Wunderground v.1.15,2013-01-19 08:12:00,
2013-01-19 03:22:00,38.0,26.5,30.26,SSW,196,7.0,7.0,63,0.00,,,0.00,Wunderground v.1.15,2013-01-19 08:22:00,
2013-01-19 03:32:00,37.7,26.6,30.25,SW,232,6.0,6.0,64,0.00,,,0.00,Wunderground v.1.15,2013-01-19 08:32:00,
2013-01-19 03:43:00,37.8,26.7,30.25,South,185,7.0,7.0,64,0.00,,,0.00,Wunderground v.1.15,2013-01-19 08:43:00,
2013-01-19 03:53:00,37.9,26.8,30.25,SSW,210,7.0,7.0,64,0.00,,,0.00,Wunderground v.1.15,2013-01-19 08:53:00,
2013-01-19 04:03:00,37.8,26.3,30.25,WSW,237,6.0,6.0,63,0.00,,,0.00,Wunderground v.1.15,2013-01-19 09:03:00,
2013-01-19 04:12:00,38.2,26.3,30.25,SW,218,7.0,7.0,62,0.00,,,0.00,Wunderground v.1.15,2013-01-19 09:12:00,
2013-01-19 04:22:00,38.2,25.9,30.25,SSW,201,6.0,12.0,61,0.00,,,0.00,Wunderground v.1.15,2013-01-19 09:22:00,
2013-01-19 04:32:00,38.2,25.9,30.25,SSW,192,7.0,7.0,61,0.00,,,0.00,Wunderground v.1.15,2013-01-19 09:32:00,
2013-01-19 04:43:00,37.8,25.9,30.24,SW,220,5.0,5.0,62,0.00,,,0.00,Wunderground v.1.15,2013-01-19 09:43:00,
2013-01-19 04:53:00,37.8,25.5,30.24,SSW,210,6.0,7.0,61,0.00,,,0.00,Wunderground v.1.15,2013-01-19 09:53:00,
2013-01-19 04:58:00,37.8,25.5,30.24,SW,226,7.0,7.0,61,0.00,,,0.00,Wunderground v.1.15,2013-01-19 09:58:00,
2013-01-19 05:12:00,37.8,25.5,30.24,WSW,248,5.0,5.0,61,0.00,,,0.00,Wunderground v.1.15,2013-01-19 10:12:00,
2013-01-19 05:22:00,37.6,25.4,30.24,SW,215,6.0,10.0,61,0.00,,,0.00,Wunderground v.1.15,2013-01-19 10:22:00,
2013-01-19 05:33:00,37.5,25.3,30.24,SSW,200,6.0,6.0,61,0.00,,,0.00,Wunderground v.1.15,2013-01-19 10:33:00,
2013-01-19 05:43:00,37.7,25.5,30.23,SSW,200,6.0,6.0,61,0.00,,,0.00,Wunderground v.1.15,2013-01-19 10:43:00,
2013-01-19 05:53:00,37.6,25.4,30.23,SW,228,7.0,10.0,61,0.00,,,0.00,Wunderground v.1.15,2013-01-19 10:53:00,
2013-01-19 06:03:00,37.6,25.4,30.23,WSW,242,6.0,6.0,61,0.00,,,0.00,Wunderground v.1.15,2013-01-19 11:03:00,
2013-01-19 06:08:00,37.5,25.3,30.23,SSW,196,6.0,6.0,61,0.00,,,0.00,Wunderground v.1.15,2013-01-19 11:08:00,
2013-01-19 07:53:00,36.7,25.7,30.22,SW,223,5.0,6.0,64,0.00,,,0.00,Wunderground v.1.15,2013-01-19 12:53:00,
2013-01-19 08:02:00,36.8,25.8,30.21,SSW,205,6.0,6.0,64,0.00,,,0.00,Wunderground v.1.15,2013-01-19 13:02:00,
2013-01-19 08:13:00,37.1,26.0,30.21,SSW,211,6.0,6.0,64,0.00,,,0.00,Wunderground v.1.15,2013-01-19 13:13:00,
2013-01-19 08:23:00,37.4,26.3,30.21,SW,225,6.0,11.0,64,0.00,,,0.00,Wunderground v.1.15,2013-01-19 13:23:00,
2013-01-19 08:32:00,37.6,26.5,30.21,SSW,198,7.0,8.0,64,0.00,,,0.00,Wunderground v.1.15,2013-01-19 13:32:00,
2013-01-19 08:43:00,37.8,27.1,30.21,SSW,209,6.0,6.0,65,0.00,,,0.00,Wunderground v.1.15,2013-01-19 13:43:00,
2013-01-19 08:52:00,38.2,27.1,30.21,South,188,6.0,6.0,64,0.00,,,0.00,Wunderground v.1.15,2013-01-19 13:52:00,
2013-01-19 09:02:00,38.7,26.8,30.21,SW,215,7.0,7.0,62,0.00,,,0.00,Wunderground v.1.15,2013-01-19 14:02:00,
2013-01-19 09:12:00,39.1,27.2,30.21,South,187,6.0,6.0,62,0.00,,,0.00,Wunderground v.1.15,2013-01-19 14:12:00,
2013-01-19 09:22:00,39.7,26.9,30.21,SSW,194,8.0,11.0,60,0.00,,,0.00,Wunderground v.1.15,2013-01-19 14:22:00,
2013-01-19 09:32:00,40.3,27.1,30.20,SSW,209,9.0,9.0,59,0.00,,,0.00,Wunderground v.1.15,2013-01-19 14:32:00,
2013-01-19 09:43:00,40.8,27.6,30.20,SSW,212,7.0,9.0,59,0.00,,,0.00,Wunderground v.1.15,2013-01-19 14:43:00,
2013-01-19 09:52:00,41.3,28.0,30.20,SW,215,8.0,8.0,59,0.00,,,0.00,Wunderground v.1.15,2013-01-19 14:52:00,
2013-01-19 10:03:00,41.8,28.1,30.20,SSW,205,8.0,8.0,58,0.00,,,0.00,Wunderground v.1.15,2013-01-19 15:03:00,
2013-01-19 10:08:00,42.2,27.6,30.20,WSW,253,8.0,13.0,56,0.00,,,0.00,Wunderground v.1.15,2013-01-19 15:08:00,
2013-01-19 10:22:00,43.0,27.9,30.20,SW,225,8.0,8.0,55,0.00,,,0.00,Wunderground v.1.15,2013-01-19 15:22:00,
2013-01-19 10:33:00,43.3,28.2,30.19,SSE,164,9.0,9.0,55,0.00,,,0.00,Wunderground v.1.15,2013-01-19 15:33:00,
2013-01-19 10:42:00,43.8,28.2,30.19,SSE,163,9.0,12.0,54,0.00,,,0.00,Wunderground v.1.15,2013-01-19 15:42:00,
2013-01-19 10:53:00,44.1,28.5,30.19,SSW,210,9.0,9.0,54,0.00,,,0.00,Wunderground v.1.15,2013-01-19 15:53:00,
2013-01-19 11:12:00,44.9,28.3,30.18,South,186,10.0,10.0,52,0.00,,,0.00,Wunderground v.1.15,2013-01-19 16:12:00,
2013-01-19 11:22:00,45.5,28.4,30.18,SW,234,7.0,8.0,51,0.00,,,0.00,Wunderground v.1.15,2013-01-19 16:22:00,
2013-01-19 11:32:00,45.8,28.7,30.17,SSW,193,9.0,9.0,51,0.00,,,0.00,Wunderground v.1.15,2013-01-19 16:32:00,
2013-01-19 11:43:00,46.4,28.8,30.16,WSW,258,7.0,11.0,50,0.00,,,0.00,Wunderground v.1.15,2013-01-19 16:43:00,
2013-01-19 11:53:00,46.7,28.5,30.15,SW,231,9.0,10.0,49,0.00,,,0.00,Wunderground v.1.15,2013-01-19 16:53:00,
2013-01-19 12:03:00,46.8,29.1,30.14,SSW,198,8.0,8.0,50,0.00,,,0.00,Wunderground v.1.15,2013-01-19 17:03:00,
2013-01-19 12:12:00,47.6,28.9,30.14,SSE,166,7.0,11.0,48,0.00,,,0.00,Wunderground v.1.15,2013-01-19 17:12:00,
2013-01-19 12:42:00,48.9,29.0,30.11,South,185,8.0,11.0,46,0.00,,,0.00,Wunderground v.1.15,2013-01-19 17:42:00,
2013-01-19 13:12:00,49.6,30.2,30.08,SSW,207,8.0,8.0,47,0.00,,,0.00,Wunderground v.1.15,2013-01-19 18:12:00,
2013-01-19 13:22:00,49.7,29.2,30.07,West,260,9.0,9.0,45,0.00,,,0.00,Wunderground v.1.15,2013-01-19 18:22:00,
2013-01-19 13:33:00,50.1,30.1,30.07,South,181,9.0,9.0,46,0.00,,,0.00,Wunderground v.1.15,2013-01-19 18:33:00,
2013-01-19 13:42:00,50.3,29.7,30.07,SSW,203,9.0,9.0,45,0.00,,,0.00,Wunderground v.1.15,2013-01-19 18:42:00,
2013-01-19 13:52:00,50.7,30.7,30.06,SSW,203,8.0,8.0,46,0.00,,,0.00,Wunderground v.1.15,2013-01-19 18:52:00,
2013-01-19 14:13:00,51.6,32.0,30.05,SW,234,7.0,7.0,47,0.00,,,0.00,Wunderground v.1.15,2013-01-19 19:13:00,
2013-01-19 14:23:00,51.8,31.1,30.04,WSW,248,8.0,8.0,45,0.00,,,0.00,Wunderground v.1.15,2013-01-19 19:23:00,
2013-01-19 14:33:00,52.0,30.2,30.04,WSW,244,7.0,11.0,43,0.00,,,0.00,Wunderground v.1.15,2013-01-19 19:33:00,
2013-01-19 14:42:00,52.2,29.8,30.03,South,173,8.0,9.0,42,0.00,,,0.00,Wunderground v.1.15,2013-01-19 19:42:00,
2013-01-19 15:22:00,52.5,29.5,30.00,SW,214,6.0,12.0,41,0.00,,,0.00,Wunderground v.1.15,2013-01-19 20:22:00,
2013-01-19 15:32:00,52.6,30.7,30.00,South,182,8.0,8.0,43,0.00,,,0.00,Wunderground v.1.15,2013-01-19 20:32:00,
2013-01-19 15:38:00,52.3,31.0,30.00,SSW,197,7.0,8.0,44,0.00,,,0.00,Wunderground v.1.15,2013-01-19 20:38:00,
2013-01-19 15:52:00,52.1,29.7,29.99,South,182,8.0,8.0,42,0.00,,,0.00,Wunderground v.1.15,2013-01-19 20:52:00,
2013-01-19 16:02:00,52.0,30.2,29.99,SSW,213,8.0,9.0,43,0.00,,,0.00,Wunderground v.1.15,2013-01-19 21:02:00,
2013-01-19 16:12:00,51.9,30.1,29.98,ESE,121,7.0,7.0,43,0.00,,,0.00,Wunderground v.1.15,2013-01-19 21:12:00,
2013-01-19 16:22:00,51.8,30.0,29.98,SSE,166,8.0,8.0,43,0.00,,,0.00,Wunderground v.1.15,2013-01-19 21:22:00,
2013-01-19 16:53:00,51.2,29.4,29.97,SSW,196,9.0,9.0,43,0.00,,,0.00,Wunderground v.1.15,2013-01-19 21:53:00,
2013-01-19 17:02:00,50.8,30.2,29.96,SSW,209,7.0,9.0,45,0.00,,,0.00,Wunderground v.1.15,2013-01-19 22:02:00,
2013-01-19 17:13:00,50.2,29.7,29.96,SSW,204,6.0,6.0,45,0.00,,,0.00,Wunderground v.1.15,2013-01-19 22:13:00,
2013-01-19 17:23:00,50.0,29.5,29.96,SW,232,8.0,8.0,45,0.00,,,0.00,Wunderground v.1.15,2013-01-19 22:23:00,
2013-01-19 17:42:00,49.4,29.5,29.95,SW,221,8.0,8.0,46,0.00,,,0.00,Wunderground v.1.15,2013-01-19 22:42:00,
2013-01-19 18:13:00,48.8,28.9,29.95,SSW,200,7.0,7.0,46,0.00,,,0.00,Wunderground v.1.15,2013-01-19 23:13:00,
2013-01-19 18:22:00,48.5,28.6,29.96,SSW,210,6.0,6.0,46,0.00,,,0.00,Wunderground v.1.15,2013-01-19 23:22:00,
2013-01-19 18:33:00,48.6,28.7,29.97,SSW,208,7.0,7.0,46,0.00,,,0.00,Wunderground v.1.15,2013-01-19 23:33:00,
2013-01-19 18:43:00,48.8,28.9,29.98,WSW,242,7.0,7.0,46,0.00,,,0.00,Wunderground v.1.15,2013-01-19 23:43:00,
2013-01-19 18:52:00,48.8,28.9,29.98,WSW,242,8.0,10.0,46,0.00,,,0.00,Wunderground v.1.15,2013-01-19 23:52:00,
2013-01-19 19:23:00,47.8,29.0,29.97,WSW,250,7.0,9.0,48,0.00,,,0.00,Wunderground v.1.15,2013-01-20 00:23:00,
2013-01-19 20:02:00,47.2,29.5,29.97,SW,218,6.0,6.0,50,0.00,,,0.00,Wunderground v.1.15,2013-01-20 01:02:00,
2013-01-19 20:13:00,47.2,29.5,29.97,SW,234,7.0,7.0,50,0.00,,,0.00,Wunderground v.1.15,2013-01-20 01:13:00,
2013-01-19 20:22:00,47.0,29.3,29.96,SSW,213,7.0,7.0,50,0.00,,,0.00,Wunderground v.1.15,2013-01-20 01:22:00,
2013-01-19 20:33:00,47.0,28.8,29.97,SSW,199,8.0,9.0,49,0.00,,,0.00,Wunderground v.1.15,2013-01-20 01:33:00,
2013-01-19 20:43:00,46.9,29.2,29.96,SSW,203,7.0,8.0,50,0.00,,,0.00,Wunderground v.1.15,2013-01-20 01:43:00,
2013-01-19 21:03:00,46.6,28.9,29.95,West,271,6.0,7.0,50,0.00,,,0.00,Wunderground v.1.15,2013-01-20 02:03:00,
2013-01-19 21:13:00,46.7,29.0,29.96,SW,236,7.0,7.0,50,0.00,,,0.00,Wunderground v.1.15,2013-01-20 02:13:00,
2013-01-19 21:23:00,46.8,29.1,29.96,SW,234,7.0,7.0,50,0.00,,,0.00,Wunderground v.1.15,2013-01-20 02:23:00,
2013-01-19 21:33:00,46.9,29.2,29.96,South,191,8.0,8.0,50,0.00,,,0.00,Wunderground v.1.15,2013-01-20 02:33:00,
2013-01-19 21:43:00,47.1,29.4,29.96,SW,217,9.0,9.0,50,0.00,,,0.00,Wunderground v.1.15,2013-01-20 02:43:00,
2013-01-19 21:53:00,46.9,29.7,29.96,WSW,257,8.0,8.0,51,0.00,,,0.00,Wunderground v.1.15,2013-01-20 02:53:00,
2013-01-19 22:13:00,46.6,29.9,29.96,South,190,7.0,7.0,52,0.00,,,0.00,Wunderground v.1.15,2013-01-20 03:13:00,
2013-01-19 22:23:00,46.5,30.3,29.96,West,260,7.0,7.0,53,0.00,,,0.00,Wunderground v.1.15,2013-01-20 03:23:00,
2013-01-19 22:33:00,46.8,30.6,29.96,SW,218,8.0,8.0,53,0.00,,,0.00,Wunderground v.1.15,2013-01-20 03:33:00,
2013-01-19 22:43:00,46.5,30.7,29.96,WSW,239,8.0,11.0,54,0.00,,,0.00,Wunderground v.1.15,2013-01-20 03:43:00,
2013-01-19 22:52:00,46.6,30.8,29.96,SW,233,9.0,9.0,54,0.00,,,0.00,Wunderground v.1.15,2013-01-20 03:52:00,
2013-01-19 23:13:00,46.1,31.3,29.97,West,275,8.0,13.0,56,0.00,,,0.00,Wunderground v.1.15,2013-01-20 04:13:00,
2013-01-19 23:23:00,46.0,31.6,29.97,SW,227,8.0,13.0,57,0.00,,,0.00,Wunderground v.1.15,2013-01-20 04:23:00,
2013-01-19 23:33:00,46.1,32.1,29.97,WSW,240,9.0,12.0,58,0.00,,,0.00,Wunderground v.1.15,2013-01-20 04:33:00,
2013-01-19 23:43:00,45.9,32.4,29.96,SW,229,8.0,8.0,59,0.00,,,0.00,Wunderground v.1.15,2013-01-20 04:43:00,
2013-01-19 23:53:00,45.6,32.5,29.97,SW,233,7.0,7.0,60,0.00,,,0.00,Wunderground v.1.15,2013-01-20 04:53:00,